Showing default

DIADEME 2, 2680

Orbit data source: Space-Track

DIADEME 2, 2680 is a payload satellite owned by CNES (FR) in LEO that was launched on Wed, 15 Feb 1967 UTC via a DIAMANT A launch vehicle from the Hamma Guira Space Track Range (HGSTR). Payload-class satellites include a variety of spacecraft equipped with specific instruments for various scientific and technological missions. These include communications satellites like Starlink; space stations such as the ISS; scientific satellites like the Hubble; Earth observation satellites from companies like Planet Labs, Umbra, and HawkEye 360; GPS; miniature CubeSats for education and research; and military/defense satellites.

Loading next visibility...
Identifier
2680, 1967-014A
Orbit
LEO
Last TLE update
15 hours ago
Origin
Manufacturer
CNES
Mission
Civil Geodetic
Bus & Motor
D-1, Unknown motor
Mass
23 kg wet, 23 kg dry
Launch date (UTC)
1967-02-15 (58 years ago)
Launch vehicle
DIAMANT A
Launch site
Hamma Guira Space Track Range (HGSTR)
Object type
Payload
Rocket body
Debris
Shape & HBR
Cyl + 4 Pan, 1.5 m
Radar Cross Section
0.455 m², Medium (>0.1 m² and < 1m²)

Expand to show TLE details & history

TLE from 15 hours ago
0 DIADEME 2
1 02680U 67014A   25186.41413617  .00000438  00000-0  20212-3 0  9998
2 02680  39.4396 201.3234 0704056 224.9692 129.1904 13.40978025829399
Epoch: 2025-07-05T09:56Z
TLE epoch observation values (Epoch: 2025-07-05T09:56:21.365Z)
Latitude
-0.00003°
Longitude
128.58182°
Altitude
1,458.785 km
Speed
6.964 km/s
True Right ascension
13h 25m 17s
True Declination
0° 00' 00"
Sunlit
Object was in daylight at epoch
Visualization orbit readout
Latitude
28.29228°
Longitude
166.52061°
Altitude
1,632.44 km
Speed
6.807 km/s
Apparent Right ascension
18h 51m 35s
Apparent Declination
-2° 58' 05"
Sunlit
Object is in daylight
Visualization observer readout
Local Sidereal Time
12:26:59
Azimuth
88.33° E
Elevation
-6.621°
Doppler factor
1
Orbital elements
Apogee altitude
1,635.048 km
Perigee altitude
580.918 km
Semi-major axis
7,486.12 km
Eccentricity
0.07041
Inclination
39.4396°
RAAN
201.3234°
Arg. of periapsis
224.9692°
True anomaly
Unknown
Mean anomaly
129.1904°
Eccentric anomaly
Unknown
Mean motion
3.35087 °/min
Orbital period
107.43 mins
BSTAR
0.00020212
Loading maneuver chart data...
Loading SW <> Apogee altitude chart data...
Loading historical data...
Loading historical data...
Loading historical data...
Loading historical data...
Loading historical data...
Loading historical data...
Loading historical data...

DIADEME 2 Visibility forecast

Observer location: undefined°, undefined°

Span
Click to sort rows by Start time (UTC) header in descending order
Start Az.
Max El. time (UTC)
Max El. Az.
Max El.
End time (UTC)
End Az.
12 mins2025-07-06 02:08:27.482Z172.716° S2025-07-06 02:14:27.482Z133.793° SE18.207°2025-07-06 02:20:27.482Z96.438° ESE
17 mins2025-07-06 03:59:27.482Z217.779° SW2025-07-06 04:07:27.482Z152.341° SSE37.343°2025-07-06 04:16:27.482Z80.777° E
17 mins2025-07-06 05:53:27.482Z252.628° W2025-07-06 06:01:27.482Z199.735° SSW44.531°2025-07-06 06:10:27.482Z83.319° E
16 mins2025-07-06 07:48:27.482Z274.004° WNW2025-07-06 07:56:27.482Z184.095° SSW44.881°2025-07-06 08:04:27.482Z101.054° ESE
13 mins2025-07-06 09:43:27.482Z276.842° WNW2025-07-06 09:50:27.482Z204.778° SW38.252°2025-07-06 09:56:27.482Z136.458° SSE
7 mins2025-07-06 11:39:27.482Z254.553° W2025-07-06 11:42:27.482Z229.403° WSW15.893°2025-07-06 11:46:27.482Z191.909° SSW
|